Weather in Kolpashnitsa

Russia / Kostroma Oblast     58°51′42″N   45°34′01″E
temp.,
°C
wind,
m/s
gust,
m/s
humid.,
%
clouds,
%
prec.,
mm/h
press.,
hPa
HPBL,
m
17 may, mon
mon1700:00+13wsw288919 0.0 1012169
03:00+12sw28930 0.0 1014173
06:00+15wsw36820 0.0 1015275
09:00+19w46621 0.0 10161024
12:00+22w35492 0.0 10171624
15:00+23nw3447100 0.0 10171796
18:00+21nne236375 0.0 1017198
21:00+15ene22855 0.0 101834
18 may, tue
tue1800:00+13ene238993 0.0 101957
03:00+12e2688100 0.0 1020128
06:00+15e388195 0.1 1020256
09:00+21ese4658100 0.1 1020692
12:00+24se454999 0.0 10191131
15:00+25se4548100 0.0 10191275
18:00+22ese3861100 0.0 1018429
21:00+18ese3127496 0.1 1019286
19 may, wed
wed1900:00+15ese31280100 0.0 1019335
03:00+13ese2108477 0.0 1020214
06:00+16ese39736 0.0 1019264
09:00+22se47515 0.0 1019652
12:00+25se564227 0.0 10191261
15:00+26se56385 0.0 10181438
18:00+23se48500 0.0 1018590
21:00+16se311750 0.0 1018250
20 may, thu
thu2000:00+14se311830 0.0 1018254
03:00+12se28880 0.0 1018165
06:00+16se38730 0.0 1018258
09:00+22se47514 0.0 1017748
12:00+25sse58355 0.0 10161755
15:00+26sse58345 0.0 10151853
18:00+23sse494431 0.0 10151060
21:00+16se3126922 0.0 1015316
21 may, fri
fri2100:00+14se3127614 0.0 1015313
03:00+13se39796 0.0 1015238
06:00+16sse38735 0.0 1015290
09:00+21sse4859100 0.0 1014991
12:00+23s5951100 0.5 10131951
15:00+24s6941100 0.5 10112953
18:00+16se4128498 1.0 1011568
21:00+15s3794100 5.6 1010245